Location: ???? ?????????
(31.1304°N, 31.7111°E)
Time: 19:53:41
(UTC+00:00)

ISS - Visible Passes

Search period start: 16 May 2021 00:00
Search period end: 26 May 2021 00:00
Orbit: 417 x 422 km, 51.6° (Epoch: 16 May)

Date Brightness Start Highest point End Pass type
(mag) Time Alt. Az. Time Alt. Az. Time Alt. Az.
16 May -1.5 01:00:43 10° NNW 01:03:37 26° NE 01:06:31 10° E visible
16 May -2.7 17:39:51 10° WSW 17:43:05 48° NW 17:46:21 10° NNE visible
17 May -0.7 00:13:49 10° N 00:16:02 16° NE 00:18:15 10° ENE visible
17 May -3.4 01:49:47 10° WNW 01:52:58 40° SW 01:56:08 10° SSE visible
17 May -0.1 18:32:14 10° NW 18:32:50 10° NNW 18:33:28 10° NNW visible
18 May -1.7 01:07:52 19° SE 01:07:52 19° SE 01:08:56 10° SE visible
18 May -0.6 17:42:59 10° WNW 17:45:10 16° NW 17:47:22 10° N visible
